Weather History for Belize, Belize

Change the Weather History Date:

Wednesday, September 28, 2011

  Actual Average Record
Temperature  
Mean Temperature 84 °F -  
Max Temperature 91 °F 87 °F 91 °F (1997)
Min Temperature 78 °F 73 °F 73 °F (2002)
Cooling Degree Days 20    
Growing Degree Days 34 (Base 50)    
Moisture  
Dew Point 77 °F    
Average Humidity 74    
Maximum Humidity 94    
Minimum Humidity 49    
Precipitation  
Precipitation 0.00 in 0.34 in - ()
Sea Level Pressure  
Sea Level Pressure 29.87 in    
Wind  
Wind Speed 3 mph ()    
Max Wind Speed 10 mph    
Max Gust Speed -    
Visibility 9.1 miles    
Events      
Averages and records for this station are not official NWS values.
T = Trace of Precipitation, MM = Missing Value Source: Averaged Metar Reports

Daily Weather History Graph

Daily Weather History Graph

Search for Another Location

Airport:

Trip Planner

Search our weather history database for the weather conditions in past years. The results will help you decide how hot, cold, wet, or windy it might be!

Date:

Astronomy

Sep. 28, 2011 Rise Set
Actual Time 5:43 AM CST 5:44 PM CST
Civil Twilight 5:21 AM CST 6:06 PM CST
Nautical Twilight 4:56 AM CST 6:31 PM CST
Astronomical Twilight 4:30 AM CST 6:56 PM CST
Moon 6:49 AM CST (9/28) 6:41 PM CST (9/28)
Length of Visible Light 12h 44m
Length of Day
12h 01m
New Moon, 3% of the Moon is Illuminated
Sep 28
New Moon
Oct 3
First Quarter
Oct 11
Full
Oct 19
Last Quarter
Oct 26
New

Hourly Weather History & Observations

Time (CST) Temp. Heat Index Dew Point Humidity Pressure Visibility Wind Dir Wind Speed Gust Speed Precip Events Conditions
12:00 AM 81 °F - 78 °F 88% 29.90 in 12 mi Calm Calm - -  
12:00 AM 80.6 °F 88.1 °F 78.8 °F 94% 29.89 in 6.2 mi Calm Calm - N/A   Partly Cloudy
3:00 AM 80 °F - 78 °F 93% 29.87 in 12 mi Calm Calm - -   Scattered Clouds
3:00 AM 80.6 °F 88.1 °F 78.8 °F 94% 29.86 in 6.2 mi Calm Calm - N/A   Partly Cloudy
6:00 AM 79 °F - 76 °F 89% 29.88 in 16 mi Calm Calm - -  
6:00 AM 78.8 °F - 77.0 °F 94% 29.86 in 6.2 mi Calm Calm - N/A   Mostly Cloudy
7:00 AM 80.6 °F 88.1 °F 78.8 °F 94% 29.86 in 6.2 mi Calm Calm - N/A   Mostly Cloudy
8:00 AM 84.2 °F 96.1 °F 78.8 °F 84% 29.89 in 6.2 mi Calm Calm - N/A   Mostly Cloudy
9:00 AM 87 °F - 77 °F 65% 29.92 in 16 mi East 5.8 mph - -   Partly Cloudy
9:00 AM 86.0 °F 96.9 °F 77.0 °F 74% 29.91 in 6.2 mi East 5.8 mph - N/A   Mostly Cloudy
10:00 AM 89.6 °F 102.2 °F 77.0 °F 66% 29.92 in 6.2 mi East 6.9 mph - N/A   Mostly Cloudy
11:00 AM 89.6 °F 99.8 °F 75.2 °F 62% 29.91 in 6.2 mi ENE 8.1 mph - N/A   Mostly Cloudy
12:00 PM 90 °F - 73 °F 49% 29.90 in 16 mi ENE 8.1 mph - -  
12:00 PM 89.6 °F 98.2 °F 73.4 °F 59% 29.89 in 6.2 mi ENE 8.1 mph - N/A   Mostly Cloudy
1:00 PM 91.4 °F 98.4 °F 71.6 °F 52% 29.85 in 6.2 mi ENE 10.4 mph - N/A   Mostly Cloudy
2:00 PM 89.6 °F 99.8 °F 75.2 °F 62% 29.83 in 6.2 mi East 9.2 mph - N/A   Mostly Cloudy
3:00 PM 89 °F - 77 °F 60% 29.81 in 16 mi ENE 9.2 mph - -   Scattered Clouds
3:00 PM 89.6 °F 102.2 °F 77.0 °F 66% 29.81 in 6.2 mi ENE 9.2 mph - N/A   Mostly Cloudy
4:00 PM 87.8 °F 97.6 °F 75.2 °F 66% 29.80 in 6.2 mi East 8.1 mph - N/A   Mostly Cloudy
5:00 PM 87.8 °F 99.7 °F 77.0 °F 70% 29.80 in 6.2 mi East 5.8 mph - N/A   Mostly Cloudy
6:00 PM 85 °F - 77 °F 71% 29.83 in 16 mi East 4.6 mph - -  
6:00 PM 86.0 °F 96.9 °F 77.0 °F 74% 29.82 in 6.2 mi East 4.6 mph - N/A   Mostly Cloudy
9:00 PM 83 °F - 78 °F 79% 29.89 in 16 mi East 3.5 mph - -   Scattered Clouds
9:00 PM 84.2 °F 94.1 °F 77.0 °F 79% 29.89 in 6.2 mi East 3.5 mph - N/A   Mostly Cloudy